Location: Andiroba
(19.8650°S, 43.9258°W)
Time: 01:36:45
(UTC+00:00)

Cosmos 1447 Rocket - Pass Details

Date: 15 June 2024
Orbit: 954 x 995 km, 82.9° (Epoch: 24 July)

Event Time Altitude Azimuth Distance (km) Brightness Sun altitude
Rises 07:14:23 0° 356° (N) 3,677 7.7 -30.4°
Reaches altitude 10° 07:16:54 10° 356° (N) 2,730 6.9 -29.8°
Maximum altitude 07:23:10 89° 272° (W) 985 4.4 -28.4°
Drops below altitude 10° 07:29:26 10° 176° (S) 2,727 6.7 -27.0°
Sets 07:31:57 0° 176° (S) 3,673 7.4 -26.4°
